Location: Bidart
(43.4376°N, 1.5913°W)
Time: 15:36:19
(UTC+00:00)

Cosmos 1346 Rocket - Pass Details

Date: 19 May 2025
Orbit: 485 x 499 km, 81.2° (Epoch: 18 June)

Event Time Altitude Azimuth Distance (km) Brightness Sun altitude
Rises 21:07:35 0° 350° (N) 2,581 7.3 -14.9°
Reaches altitude 10° 21:09:43 10° 352° (N) 1,692 6.2 -15.2°
Maximum altitude 21:13:26 83° 80° (E) 499 2.5 -15.6°
Enters shadow 21:15:07 30° 165° (SSE) 888 3.4 -15.8°
